STARLINK-34713, 64906

Orbit data source: Space-Track

STARLINK-34713, 64906 is a payload satellite owned by SpaceX/Seattle (US) in LEO that was launched on Sat, 26 Jul 2025 UTC via an FALCON 9 launch vehicle from the Air Force Eastern Test Range (AFETR). Payload-class satellites include a variety of spacecraft equipped with specific instruments for various scientific and technological missions. These include communications satellites like Starlink; space stations such as the ISS; scientific satellites like the Hubble; Earth observation satellites from companies like Planet Labs, Umbra, and HawkEye 360; GPS; miniature CubeSats for education and research; and military/defense satellites.

Loading next visibility...
Identifier
64906, 2025-157C
Orbit
LEO
Country
Flag of USUS
Related business
Manufacturer
SpaceX/Seattle
Mission
Operational Commercial Communications
Bus & Motor
STARLINK V2MO, Unknown motor
Mass
575 kg wet, ~530 kg dry
Launch date (UTC)
2025-07-26 (4 months ago)
Launch vehicle
FALCON 9
Launch site
Air Force Eastern Test Range (AFETR)
Object type
Payload
Rocket body
Debris
Shape & HBR
Box + 2 Pan, 17.7 m
Radar Cross Section
36.964 m², Large (>1 m²)

Expand to show TLE details & history
Last TLE update: 11 hours ago

TLE from 11 hours ago
0 STARLINK-34713
1 64906U 25157C   25340.94122528  .00050771  00000-0  12714-2 0  9999
2 64906  53.1589  60.7389 0001851  88.4644 271.6573 15.39606173 21814
Epoch: 2025-12-06T22:35Z
TLE epoch observation values (Epoch: 2025-12-06T22:35:21.864Z)
Latitude
Longitude
5.93606°
Altitude
448.14 km
Speed
7.645 km/s
True Right ascension
04h 02m 57s
True Declination
0° 00' 00"
Sunlit
Object was in full shadow at epoch
Visualization orbit readout
Latitude
Unknown
Longitude
Unknown
Altitude
Unknown
Speed
Unknown
Apparent Right ascension
Unknown
Apparent Declination
Unknown
Sunlit
N/A
Visualization observer readout
Local Sidereal Time
07:40:11
Azimuth
Unknown
Elevation
Unknown
Doppler factor
Unknown
Orbital elements
Apogee altitude
448.794 km
Perigee altitude
446.267 km
Semi-major axis
6,825.668 km
Eccentricity
0.00019
Inclination
53.1589°
RAAN
60.7389°
Arg. of periapsis
88.4644°
True anomaly
271.6361°
Mean anomaly
271.6573°
Eccentric anomaly
271.6467°
Mean motion
3.8488 °/min
Orbital period
93.54 mins
BSTAR
0.0012714
Loading maneuver chart data...
Computing Atmospheric mass density...
Loading historical data...
Loading historical data...
Loading historical data...
Loading historical data...
Loading historical data...
Loading historical data...
Loading historical data...

Documentation

Showing up to 5 results
|